Location: Unspecified
(0.0000°N, 0.0000°E)
Time: 20:05:50
(UTC+00:00)

Vanguard 1 - All Passes

Search period start: 14 July 2020 00:00
Search period end: 24 July 2020 00:00
Orbit: 649 x 3833 km, 34.2° (Epoch: 14 July)

Date Brightness Start Highest point End Pass type
(mag) Time Alt. Az. Time Alt. Az. Time Alt. Az.
14 Jul - 02:06:07 10° NW 02:12:38 88° NNE 02:25:02 10° SE visible
14 Jul - 04:27:42 10° W 04:36:35 32° SSW 04:51:11 10° SE visible
14 Jul - 06:55:40 10° SW 07:06:38 19° S 07:20:27 10° SE daylight
14 Jul - 09:24:43 10° SSW 09:41:30 24° SSE 09:57:33 10° ESE daylight
14 Jul - 11:50:55 10° SW 12:12:55 48° SSE 12:27:46 10° E daylight
14 Jul - 14:18:44 10° WSW 14:38:51 74° NW 14:49:45 10° NE daylight
14 Jul - 16:52:53 10° W 17:00:49 18° NW 17:06:30 10° N daylight
15 Jul - 00:09:20 10° N 00:13:22 21° NE 00:18:52 10° E night (unlit)
15 Jul - 02:27:01 10° WNW 02:33:45 65° SSW 02:46:27 10° SE visible
15 Jul - 04:50:03 10° WSW 04:58:53 25° SSW 05:12:20 10° SSE visible
15 Jul - 07:18:58 10° SW 07:30:19 18° S 07:43:57 10° SE daylight
15 Jul - 09:46:20 10° SSW 10:04:49 28° SSE 10:21:32 10° ESE daylight
15 Jul - 12:12:11 10° SW 12:34:56 60° SSE 12:49:32 10° ENE daylight
15 Jul - 14:41:01 10° WSW 14:59:51 57° NW 15:10:18 10° NE daylight
15 Jul - 17:19:11 10° NW 17:21:58 11° NW 17:24:27 10° NNW daylight
16 Jul - 00:29:09 10° NNW 00:34:00 35° NE 00:41:31 10° ESE night (unlit)
16 Jul - 02:48:14 10° W 02:55:08 46° SSW 03:07:37 10° SE visible
16 Jul - 05:12:53 10° SW 05:21:29 20° SSW 05:33:41 10° SSE visible
16 Jul - 07:41:46 10° SSW 07:54:07 19° S 08:08:21 10° SE daylight
16 Jul - 10:07:39 10° SSW 10:27:45 34° SSE 10:44:57 10° E daylight
16 Jul - 12:33:33 10° SW 12:56:41 74° SE 13:10:55 10° ENE daylight
16 Jul - 15:03:48 10° WSW 15:20:46 42° NW 15:30:38 10° NNE daylight
17 Jul - 00:49:27 10° NW 00:54:41 60° NE 01:03:30 10° ESE night (unlit)
17 Jul - 03:09:51 10° W 03:16:48 33° SSW 03:28:35 10° SE visible
17 Jul - 05:36:06 10° SW 05:44:25 17° S 05:55:29 10° SSE visible
17 Jul - 08:03:55 10° SSW 08:17:50 21° SSE 08:33:18 10° ESE daylight
17 Jul - 10:28:47 10° SW 10:50:19 42° SSE 11:07:46 10° E daylight
17 Jul - 12:55:08 10° SW 13:18:11 90° SE 13:32:01 10° NE daylight
17 Jul - 15:27:14 10° W 15:41:43 31° NW 15:50:45 10° NNE daylight
18 Jul - 01:10:05 10° NW 01:15:31 85° SW 01:25:02 10° SE visible
18 Jul - 03:31:53 10° WSW 03:38:45 25° SSW 03:49:26 10° SSE visible
18 Jul - 05:59:24 10° SSW 06:07:39 16° S 06:18:06 10° SSE daylight
18 Jul - 08:25:31 10° SSW 08:41:17 24° SSE 08:58:09 10° ESE daylight
18 Jul - 10:49:54 10° SW 11:12:35 51° SSE 11:30:04 10° ENE daylight
18 Jul - 13:17:00 10° WSW 13:39:29 74° NW 13:52:50 10° NE daylight
18 Jul - 15:51:30 10° W 16:02:50 22° NW 16:10:32 10° N daylight
18 Jul - 23:13:14 10° N 23:16:30 18° NE 23:20:28 10° E night (unlit)
19 Jul - 01:31:04 10° WNW 01:36:36 55° SSW 01:46:13 10° SE visible
19 Jul - 03:54:26 10° WSW 04:00:56 19° SSW 04:10:14 10° SSE visible
19 Jul - 06:22:19 10° SSW 06:31:06 15° S 06:41:55 10° SE daylight
19 Jul - 08:46:46 10° SSW 09:04:24 29° SSE 09:22:29 10° ESE daylight
19 Jul - 11:11:03 10° SW 11:34:35 63° SE 11:51:55 10° ENE daylight
19 Jul - 13:39:16 10° WSW 14:00:38 58° NW 14:13:28 10° NE daylight
19 Jul - 16:16:58 10° WNW 16:24:10 15° NW 16:29:44 10° N daylight
19 Jul - 23:33:01 10° NNW 23:37:12 33° NE 23:42:55 10° ESE night (unlit)
20 Jul - 01:52:24 10° W 01:57:57 36° SSW 02:07:07 10° SE visible
20 Jul - 04:17:33 10° SW 04:23:24 15° S 04:31:08 10° SSE visible
20 Jul - 06:44:32 10° SSW 06:54:38 17° SSE 07:06:53 10° SE daylight
20 Jul - 09:07:48 10° SSW 09:27:09 35° SSE 09:46:10 10° E daylight
20 Jul - 11:32:20 10° SW 11:56:20 76° SE 12:13:22 10° ENE daylight
20 Jul - 14:02:03 10° WSW 14:21:45 45° NW 14:33:53 10° NNE daylight
20 Jul - 23:53:20 10° NW 23:57:54 61° NE 00:04:40 10° ESE night (unlit)
21 Jul - 02:14:11 10° WSW 02:19:33 25° SSW 02:27:45 10° SSE visible
21 Jul - 04:41:05 10° SSW 04:46:10 13° S 04:52:24 10° SSE visible
21 Jul - 07:06:06 10° SSW 07:18:03 19° SSE 07:32:25 10° ESE daylight
21 Jul - 09:28:44 10° SW 09:49:34 43° SSE 10:09:12 10° E daylight
21 Jul - 11:53:49 10° SW 12:17:54 89° NW 12:34:31 10° NE daylight
21 Jul - 14:25:29 10° W 14:42:56 34° NW 14:54:08 10° NNE daylight
22 Jul - 00:14:03 10° WNW 00:18:45 75° SW 00:25:58 10° SE night (unlit)
22 Jul - 02:36:32 10° WSW 02:41:23 18° SSW 02:48:08 10° SSE visible
22 Jul - 05:04:31 10° SSW 05:09:11 12° S 05:14:41 10° SSE visible
22 Jul - 07:27:12 10° SSW 07:41:12 23° SSE 07:57:47 10° ESE daylight
22 Jul - 09:49:40 10° SW 10:11:42 53° SE 10:31:38 10° ENE daylight
22 Jul - 12:15:36 10° WSW 12:39:19 73° NW 12:55:26 10° NE daylight
22 Jul - 14:49:43 10° W 15:04:16 25° NW 15:14:10 10° NNE daylight
22 Jul - 22:16:44 10° N 22:19:45 18° NE 22:23:00 10° E night (unlit)
23 Jul - 00:35:09 10° WNW 00:39:48 43° SSW 00:46:53 10° SE night (unlit)
23 Jul - 02:59:42 10° SW 03:03:28 13° SSW 03:08:10 10° SSE visible
23 Jul - 05:26:57 10° SSW 05:32:23 12° S 05:38:48 10° SSE visible
23 Jul - 07:48:04 10° SSW 08:04:01 28° SSE 08:22:31 10° E daylight
23 Jul - 10:10:41 10° SW 10:33:36 65° SE 10:53:35 10° ENE daylight
23 Jul - 12:37:47 10° WSW 13:00:39 59° NW 13:16:08 10° NE daylight
23 Jul - 15:14:57 10° WNW 15:25:53 18° NW 15:33:54 10° N daylight
23 Jul - 22:36:35 10° NNW 22:40:34 33° NE 22:45:13 10° ESE night (unlit)
